Henderson, KY

8:18 PM CDT on April 25, 2017 (GMT -0500)
Henderson City-County

Weather History for KEHR - November, 2011

Change the Weather History Date:

Tuesday, November 22, 2011

  Actual Average Record
Temperature  
Mean Temperature 55 °F -  
Max Temperature 64 °F 54 °F 74 °F (1983)
Min Temperature 46 °F 34 °F 9 °F (1964)
Degree Days  
Heating Degree Days 10    
Growing Degree Days 5 (Base 50)    
Moisture  
Dew Point 45 °F    
Average Humidity 75    
Maximum Humidity 82    
Minimum Humidity 67    
Precipitation  
Precipitation 1.31 in - - ()
Sea Level Pressure  
Sea Level Pressure 29.91 in    
Wind  
Wind Speed 8 mph (NW)    
Max Wind Speed 21 mph    
Max Gust Speed 28 mph    
Visibility 8 miles    
Events      
Averages and records for this station are not official NWS values.
T = Trace of Precipitation, MM = Missing Value Source: NWS Daily Summary

Daily Weather History Graph

Daily Weather History Graph

Search for Another Location

Airport or City:

Trip Planner

Search our weather history database for the weather conditions in past years. The results will help you decide how hot, cold, wet, or windy it might be!

Date:

Astronomy

Nov. 22, 2011 Rise Set
Actual Time 6:38 AM CST 4:35 PM CST
Civil Twilight 6:09 AM CST 5:03 PM CST
Nautical Twilight 5:37 AM CST 5:35 PM CST
Astronomical Twilight 5:06 AM CST 6:06 PM CST
Moon 3:30 AM CST (11/22) 2:32 PM CST (11/22)
Length of Visible Light 10h 53m
Length of Day
9h 57m
Waning Crescent, 9% of the Moon is Illuminated
Nov 22
Waning Crescent
Nov 25
New
Dec 2
First Quarter
Dec 10
Full
Dec 17
Last Quarter

Hourly Weather History & Observations

Time (CST) Temp. Windchill Dew Point Humidity Pressure Visibility Wind Dir Wind Speed Gust Speed Precip Events Conditions
12:15 AM 51.8 °F - 44.6 °F 76% 30.08 in 1.0 mi Calm Calm - N/A   Overcast
12:35 AM 51.8 °F - 44.6 °F 76% 30.06 in 0.8 mi NNE 5.8 mph - N/A   Overcast
12:55 AM 51.8 °F - 44.6 °F 76% 30.03 in 0.8 mi NNE 8.1 mph - N/A   Overcast
1:15 AM 51.8 °F - 44.6 °F 76% 30.03 in 1.5 mi NE 6.9 mph - N/A   Overcast
1:35 AM 51.8 °F - 44.6 °F 76% 30.03 in 3.0 mi NE 4.6 mph - N/A   Overcast
1:55 AM 51.8 °F - 44.6 °F 76% 30.02 in 2.5 mi ENE 5.8 mph - N/A   Overcast
2:15 AM 51.8 °F - 46.4 °F 82% 30.03 in 3.0 mi Calm Calm - N/A   Overcast
2:35 AM 53.6 °F - 46.4 °F 77% 30.04 in 3.0 mi Calm Calm - 0.08 in   Overcast
2:55 AM 51.8 °F - 46.4 °F 82% 30.04 in 3.0 mi NNW 5.8 mph - 0.21 in   Overcast
3:15 AM 51.8 °F - 46.4 °F 82% 30.03 in 4.0 mi Calm Calm - 0.11 in   Overcast
3:35 AM 51.8 °F - 46.4 °F 82% 30.02 in 5.0 mi NW 4.6 mph - 0.25 in   Overcast
3:55 AM 51.8 °F - 44.6 °F 76% 29.99 in 5.0 mi NNE 8.1 mph - 0.33 in   Overcast
4:15 AM 51.8 °F - 44.6 °F 76% 29.98 in 7.0 mi ENE 6.9 mph - 0.01 in   Overcast
4:35 AM 51.8 °F - 44.6 °F 76% 29.97 in 8.0 mi ENE 5.8 mph - 0.04 in   Overcast
4:55 AM 51.8 °F - 46.4 °F 82% 29.99 in 6.0 mi SSE 6.9 mph - 0.20 in   Overcast
5:15 AM 53.6 °F - 46.4 °F 77% 29.96 in 5.0 mi East 5.8 mph - 0.20 in   Mostly Cloudy
5:55 AM 53.6 °F - 46.4 °F 77% 29.93 in 7.0 mi Calm Calm - 0.25 in   Overcast
6:15 AM 53.6 °F - 46.4 °F 77% 29.94 in 7.0 mi Calm Calm - 0.05 in   Overcast
6:35 AM 53.6 °F - 46.4 °F 77% 29.91 in 7.0 mi ENE 8.1 mph - 0.19 in   Overcast
6:55 AM 55.4 °F - 48.2 °F 77% 29.89 in 4.0 mi East 6.9 mph - 0.28 in   Overcast
7:15 AM 55.4 °F - 48.2 °F 77% 29.87 in 8.0 mi NE 6.9 mph - 0.03 in   Overcast
7:35 AM 55.4 °F - 50.0 °F 82% 29.84 in 9.0 mi East 8.1 mph - 0.03 in   Overcast
7:55 AM 57.2 °F - 50.0 °F 77% 29.84 in 10.0 mi East 8.1 mph - 0.03 in   Overcast
8:15 AM 57.2 °F - 50.0 °F 77% 29.82 in 10.0 mi East 9.2 mph - 0.01 in   Mostly Cloudy
8:35 AM 57.2 °F - 51.8 °F 82% 29.82 in 10.0 mi ESE 8.1 mph - 0.01 in   Overcast
8:55 AM 57.2 °F - 51.8 °F 82% 29.80 in 10.0 mi ESE 4.6 mph - 0.01 in   Mostly Cloudy
9:15 AM 59.0 °F - 51.8 °F 77% 29.81 in 10.0 mi SSE 3.5 mph - N/A   Partly Cloudy
9:35 AM 60.8 °F - 53.6 °F 77% 29.79 in 10.0 mi South 8.1 mph - N/A   Scattered Clouds
9:55 AM 62.6 °F - 55.4 °F 77% 29.79 in 10.0 mi South 9.2 mph - N/A   Partly Cloudy
10:15 AM 62.6 °F - 55.4 °F 77% 29.77 in 7.0 mi South 12.7 mph - N/A   Scattered Clouds
10:35 AM 62.6 °F - 57.2 °F 82% 29.78 in 10.0 mi South 12.7 mph - N/A   Mostly Cloudy
10:55 AM 62.6 °F - 57.2 °F 82% 29.76 in 10.0 mi South 12.7 mph - N/A   Mostly Cloudy
11:35 AM 64.4 °F - 55.4 °F 73% 29.75 in 10.0 mi SSW 16.1 mph 20.7 mph N/A   Overcast
12:35 PM 62.6 °F - 53.6 °F 72% 29.74 in 10.0 mi SSW 18.4 mph - N/A   Overcast
1:35 PM 62.6 °F - 53.6 °F 72% 29.74 in 8.0 mi SW 16.1 mph - N/A   Overcast
1:55 PM 62.6 °F - 53.6 °F 72% 29.75 in 10.0 mi SW 18.4 mph - N/A   Overcast
2:15 PM 60.8 °F - 53.6 °F 77% 29.76 in 10.0 mi West 16.1 mph 24.2 mph N/A   Overcast
2:35 PM 57.2 °F - 48.2 °F 72% 29.76 in 10.0 mi West 16.1 mph 24.2 mph N/A   Overcast
2:55 PM 57.2 °F - 46.4 °F 67% 29.77 in 10.0 mi West 18.4 mph - N/A   Overcast
3:35 PM 55.4 °F - 46.4 °F 72% 29.79 in 10.0 mi West 12.7 mph - N/A   Overcast
3:55 PM 55.4 °F - 44.6 °F 67% 29.80 in 10.0 mi West 12.7 mph 24.2 mph N/A   Overcast
4:15 PM 53.6 °F - 44.6 °F 72% 29.81 in 10.0 mi West 15.0 mph 20.7 mph N/A   Overcast
4:35 PM 53.6 °F - 42.8 °F 67% 29.82 in 10.0 mi West 15.0 mph 21.9 mph N/A   Overcast
4:55 PM 51.8 °F - 42.8 °F 71% 29.84 in 10.0 mi West 19.6 mph 25.3 mph N/A   Overcast
5:35 PM 50.0 °F - 41.0 °F 71% 29.86 in 10.0 mi West 15.0 mph - N/A   Overcast
5:55 PM 50.0 °F - 41.0 °F 71% 29.87 in 10.0 mi WNW 17.3 mph 25.3 mph N/A   Overcast
6:15 PM 48.2 °F - 39.2 °F 71% 29.89 in 10.0 mi WNW 16.1 mph - N/A   Overcast
6:35 PM 48.2 °F - 39.2 °F 71% 29.90 in 6.0 mi WNW 20.7 mph 27.6 mph N/A   Overcast
6:55 PM 48.2 °F - 39.2 °F 71% 29.91 in 10.0 mi WNW 16.1 mph - N/A   Overcast
7:15 PM 48.2 °F - 39.2 °F 71% 29.92 in 10.0 mi NW 16.1 mph 20.7 mph N/A   Overcast
7:35 PM 46.4 °F 39.8 °F 39.2 °F 76% 29.93 in 10.0 mi NW 16.1 mph 21.9 mph N/A   Overcast
7:55 PM 46.4 °F 40.7 °F 39.2 °F 76% 29.94 in 10.0 mi NW 12.7 mph 19.6 mph N/A   Overcast
8:15 PM 46.4 °F 40.4 °F 37.4 °F 71% 29.95 in 10.0 mi NW 13.8 mph 21.9 mph N/A   Overcast
8:35 PM 46.4 °F 39.2 °F 37.4 °F 71% 29.96 in 10.0 mi NW 18.4 mph 24.2 mph N/A   Overcast
9:15 PM 46.4 °F 39.8 °F 37.4 °F 71% 29.99 in 10.0 mi NW 16.1 mph - N/A   Overcast
9:35 PM 46.4 °F 40.4 °F 37.4 °F 71% 30.00 in 10.0 mi NW 13.8 mph 23.0 mph N/A   Overcast
9:55 PM 46.4 °F 40.1 °F 37.4 °F 71% 30.00 in 10.0 mi NW 15.0 mph - N/A   Overcast
10:15 PM 46.4 °F 38.7 °F 37.4 °F 71% 30.01 in 10.0 mi NW 20.7 mph 25.3 mph N/A   Overcast
10:35 PM 46.4 °F 39.5 °F 37.4 °F 71% 30.02 in 9.0 mi WNW 17.3 mph - N/A   Overcast
10:55 PM 46.4 °F 41.1 °F 37.4 °F 71% 30.03 in 9.0 mi NW 11.5 mph - N/A   Overcast
11:15 PM 46.4 °F 39.8 °F 37.4 °F 71% 30.04 in 9.0 mi WNW 16.1 mph 21.9 mph N/A   Overcast
11:35 PM 46.4 °F 40.1 °F 37.4 °F 71% 30.04 in 10.0 mi NW 15.0 mph 26.5 mph N/A   Overcast
11:55 PM 46.4 °F 39.8 °F 37.4 °F 71% 30.05 in 10.0 mi NW 16.1 mph 23.0 mph N/A   Overcast